retirement_home.id,retirement_home.ts,retirement_home.title,retirement_home.address,retirement_home.phone,retirement_home.phone_extension,retirement_home.fax_number,retirement_home.locality,retirement_home.state,retirement_home.postal_code,retirement_home.country
101,"2018-03-08 20:18:58","Harbor Healthcare","norcross, Georgia 30092 2423","(770) 441-2806",n/a,"(770) 441-2806",Norcross,Georgia,"30092 2423","United States"
102,"2018-03-08 20:19:06","Americair Atlanta","norcross, Georgia 30071 3573",n/a,n/a,n/a,Norcross,Georgia,"30071 3573","United States"
103,"2018-03-08 20:19:12","Hi Tech Homecare","norcross, Georgia 30093","(770) 449-6785",n/a,"(770) 449-0648",Norcross,Georgia,30093,"United States"
104,"2018-03-08 20:19:20","Ldb Medical Inc","norcross, Georgia 30071","(770) 446-2554",n/a,"(770) 446-2554",Norcross,Georgia,30071,"United States"
105,"2018-03-08 20:19:25","Healthfield Inc","peachtree city, Georgia 30269","(770) 393-9090",n/a,"(770) 396-9616","Peachtree City",Georgia,30269,"United States"
106,"2018-03-08 20:19:37","Georgia Home Health Care","reidsville, Georgia 30453 0499","(912) 565-8820",n/a,"(912) 557-4330",Reidsville,Georgia,"30453 0499","United States"
107,"2018-03-08 20:19:44","Lucas Allied Health Center","riverdale, Georgia 30274","(770) 909-6420",n/a,"(770) 909-6424",Riverdale,Georgia,30274,"United States"
108,"2018-03-08 20:19:51","Southern Regional Homecare","riverdale, Georgia 30274 2600","(770) 991-8662",n/a,"(770) 991-8663",Riverdale,Georgia,"30274 2600","United States"
109,"2018-03-08 20:20:00","Amedisys Home Health Rome","rome, Georgia 30161 3222","(706) 291-8867",n/a,"(706) 290-0461",Rome,Georgia,"30161 3222","United States"
110,"2018-03-08 20:20:05","Floyd Home Health Agency Inc","rome, Georgia 30165 2545","(706) 802-4600",n/a,"(706) 802-4654",Rome,Georgia,"30165 2545","United States"
111,"2018-03-08 20:20:11","Mercy Senior Care","rome, Georgia 30162 0866","(706) 291-0100",n/a,"(706) 295-5953",Rome,Georgia,"30162 0866","United States"
112,"2018-03-08 20:20:19","Redmond Regional Hospice And Wellness","rome, Georgia 30164 7001","(404) 236-1980",n/a,"(404) 236-1980",Rome,Georgia,"30164 7001","United States"
113,"2018-03-08 20:20:27","Guardian Home Care","roswell, Georgia 30075","(423) 870-9971",n/a,"(423) 870-6824",Roswell,Georgia,30075,"United States"
114,"2018-03-08 20:20:35","Abc Home Health Inc","sandersville, Georgia 31082 1382","(912) 264-1940",n/a,"(912) 264-1940",Sandersville,Georgia,"31082 1382","United States"
115,"2018-03-08 20:20:42","Caresouth Home Health Care","sandersville, Georgia 31082 2668","(478) 552-0966",n/a,"(478) 552-0966",Sandersville,Georgia,"31082 2668","United States"
116,"2018-03-08 20:20:49","Careone Home Health","savannah, Georgia 31406 2535","(912) 350-6559",n/a,"(912) 350-6533",Savannah,Georgia,"31406 2535","United States"
117,"2018-03-08 20:20:56","Chapman Healthcare Services","savannah, Georgia 30406","(912) 921-0234",n/a,"(912) 921-0720",Savannah,Georgia,30406,"United States"
118,"2018-03-08 20:21:04","Georgia Infirmary","savannah, Georgia 31403","(912) 234-6694",n/a,"(912) 236-4387",Savannah,Georgia,31403,"United States"
119,"2018-03-08 20:21:11","Healthmaster Savannah","savannah, Georgia 31405 4412","(912) 354-9707",n/a,"(912) 354-9707",Savannah,Georgia,"31405 4412","United States"
120,"2018-03-08 20:21:20","Hospice Savannah Inc","savannah, Georgia 31406 3902","(912) 355-2289",n/a,"(912) 355-2376",Savannah,Georgia,"31406 3902","United States"
121,"2018-03-08 20:21:26","Atc Healthcare Services","smyrna, Georgia 30080 8500","(770) 991-2515",n/a,"(770) 991-2515",Smyrna,Georgia,"30080 8500","United States"
122,"2018-03-08 20:21:27","National Home Respiratory Care","smyrna, Georgia 30080 6556","(770) 435-0000",n/a,"(770) 435-0000",Smyrna,Georgia,"30080 6556","United States"
123,"2018-03-08 20:21:33","Nursing Management Services","smyrna, Georgia 30080 8500","(404) 816-8678",n/a,"(404) 816-8679",Smyrna,Georgia,"30080 8500","United States"
124,"2018-03-08 20:21:42","Three Rivers Home Health Services","soperton, Georgia 30457","(800) 232-2027",n/a,"(800) 232-2027",Soperton,Georgia,30457,"United States"
125,"2018-03-08 20:21:46","Homebound Services Inc","statesboro, Georgia 30459 2473","(912) 764-9500",n/a,"(912) 489-3215",Statesboro,Georgia,"30459 2473","United States"
126,"2018-03-08 20:21:51","Ogeechee Area Hospice","statesboro, Georgia 30459 0531","(912) 764-8441",n/a,"(912) 489-8247",Statesboro,Georgia,"30459 0531","United States"
127,"2018-03-08 20:21:58","Ogeechee Home Health Agency","statesboro, Georgia 30458 1452","(912) 486-1900",n/a,"(912) 681-6442",Statesboro,Georgia,"30458 1452","United States"
128,"2018-03-08 20:22:03","Justice Home Care Inc","stockbridge, Georgia 30281","(770) 389-4755",n/a,"(770) 380-1755",Stockbridge,Georgia,30281,"United States"
129,"2018-03-08 20:22:07","Caregiver Solutions","stone mountain, Georgia 30087","(770) 413-3838",n/a,"(770) 413-3838","Stone Mountain",Georgia,30087,"United States"
130,"2018-03-08 20:22:15","Life Oasis Inc","stone mountain, Georgia 30087 6401","(404) 469-2814",n/a,"(404) 469-2814","Stone Mountain",Georgia,"30087 6401","United States"
131,"2018-03-08 20:22:19","Nurse Call Inc","suwanee, Georgia 30174 1089","(770) 814-2848",n/a,"(770) 814-2850",Suwanee,Georgia,"30174 1089","United States"
132,"2018-03-08 20:22:27","Caresouth Home Health","swainsboro, Georgia 30401 0206","(478) 237-2857",n/a,"(478) 237-2857",Swainsboro,Georgia,"30401 0206","United States"
133,"2018-03-08 20:22:34","Caresouth St Francis","thomaston, Georgia 30286","(706) 553-2428",n/a,"(706) 553-2428",Thomaston,Georgia,30286,"United States"
134,"2018-03-08 20:22:41","Thomaston St Francis Hospital Inc Dba Caresouth","thomaston, Georgia 30286 2807","(706) 647-8911",n/a,"(706) 647-1500",Thomaston,Georgia,"30286 2807","United States"
135,"2018-03-08 20:22:50","Archbold Health Services Inc","thomasville, Georgia 31799 0620","(229) 227-6809",n/a,"(229) 227-6840",Thomasville,Georgia,"31799 0620","United States"
136,"2018-03-08 20:22:56","Hometown Homecare","thomasville, Georgia 31792","(229) 551-0089",n/a,"(229) 228-1241",Thomasville,Georgia,31792,"United States"
137,"2018-03-08 20:23:04","Thomson University Health Services Inc Dba Caresouth","thomson, Georgia 30814","(706) 595-5115",n/a,"(706) 595-7307",Thomson,Georgia,30814,"United States"
138,"2018-03-08 20:23:13","Hospice Tift Area","tifton, Georgia 31793 0747","(229) 382-5030",n/a,"(229) 388-5633",Tifton,Georgia,"31793 0747","United States"
139,"2018-03-08 20:23:22","Vna Greater Tift Inc","tifton, Georgia 31793 0732","(229) 386-8571",n/a,"(229) 386-1525",Tifton,Georgia,"31793 0732","United States"
140,"2018-03-08 20:23:29","Convalescent Home Care Inc","toccoa, Georgia 30577 0116","(706) 886-7032",n/a,"(706) 886-7032",Toccoa,Georgia,"30577 0116","United States"
141,"2018-03-08 20:23:33","Amedisys Home Health Valdosta","valdosta, Georgia 31602 2538","(229) 245-0646",n/a,"(229) 245-8946",Valdosta,Georgia,"31602 2538","United States"
142,"2018-03-08 20:23:41","Barnes Health Care Services","valdosta, Georgia 31601 5621","(229) 245-6001",n/a,"(229) 245-6005",Valdosta,Georgia,"31601 5621","United States"
143,"2018-03-08 20:23:48","Family Healthcare","valdosta, Georgia 31602","(229) 244-6788",n/a,"(229) 244-9667",Valdosta,Georgia,31602,"United States"
144,"2018-03-08 20:23:52","Soleus Healthcare Services Southern Georgia","valdosta, Georgia 31602 1715","(229) 247-7760",n/a,"(229) 247-7760",Valdosta,Georgia,"31602 1715","United States"
145,"2018-03-08 20:23:59","Southern Home Care Services Inc Dba Eldercare","valdosta, Georgia 31604 2797","(229) 242-2797",n/a,"(229) 242-2358",Valdosta,Georgia,"31604 2797","United States"
146,"2018-03-08 20:24:04","Hospice Houston County","warner robins, Georgia 31093 3634","(478) 922-1777",n/a,"(478) 922-9433","Warner Robins",Georgia,"31093 3634","United States"
147,"2018-03-08 20:24:10","Caresouth Washington","washington, Georgia 30673 1601","(706) 678-3221",n/a,"(706) 678-3221",Washington,Georgia,"30673 1601","United States"
148,"2018-03-08 20:24:17","Csra Home Health Agency","washington, Georgia 30673 0189","(706) 678-3172",n/a,"(706) 678-3002",Washington,Georgia,"30673 0189","United States"
149,"2018-03-08 20:24:23","Csra Private Duty Inc","washington, Georgia 30673","(706) 678-3108",n/a,"(706) 678-3111",Washington,Georgia,30673,"United States"
150,"2018-03-08 20:24:30","Ware Visiting Nurses Services","waycross, Georgia 31501","(912) 283-1262",n/a,"(912) 283-5374",Waycross,Georgia,31501,"United States"
151,"2018-03-08 20:24:36","University Home Health Waynesboro Office","waynesboro, Georgia 30830 0806","(706) 554-7013",n/a,"(706) 554-7016",Waynesboro,Georgia,"30830 0806","United States"
152,"2018-03-08 20:24:43","Abc Home Health Wrightsville","wrightsville, Georgia 31096 1706","(478) 864-0134",n/a,"(478) 864-0134",Wrightsville,Georgia,"31096 1706","United States"
153,"2018-03-08 20:24:49","Servicios De Hospicio De Adjuntas","adjuntas, Puerto Rico 00601 0993","(787) 829-2953",n/a,"(787) 829-1093",Adjuntas,"Puerto Rico","00601 0993","United States"
154,"2018-03-08 20:24:53","Hospicio Santa Rita Inc","aguada, Puerto Rico 00602 1143","(809) 868-2945",n/a,"(809) 868-0010",Aguada,"Puerto Rico","00602 1143","United States"
155,"2018-03-08 20:24:57","Deparment Social Services","aguadilla, Puerto Rico 00605 0970","(787) 891-5570",n/a,"(787) 891-5570",Aguadilla,"Puerto Rico","00605 0970","United States"
156,"2018-03-08 20:25:04","Menonite Hospital Hospice","aibonito, Puerto Rico 00705 1379","(787) 735-8001",n/a,"(787) 735-8001",Aibonito,"Puerto Rico","00705 1379","United States"
157,"2018-03-08 20:25:10","Aztin Hospicio La Paz","arecibo, Puerto Rico 612","(787) 795-3463",n/a,"(809) 784-6746",Arecibo,"Puerto Rico",612,"United States"
158,"2018-03-08 20:25:16","Oficina Gericola Regional","barranquitas, Puerto Rico 00794 0250","(809) 857-2182",n/a,"(809) 857-2182",Barranquitas,"Puerto Rico","00794 0250","United States"
159,"2018-03-08 20:25:22","Agencia Area En Envejecimiento","bayamon, Puerto Rico 619","(809) 780-1073",n/a,"(809) 780-1073",Bayamon,"Puerto Rico",619,"United States"
160,"2018-03-08 20:25:27","Health Keeper Hospice Inc","bayamon, Puerto Rico 00961 6922","(787) 786-4626",n/a,"(787) 786-4676",Bayamon,"Puerto Rico","00961 6922","United States"
161,"2018-03-08 20:25:36","Atencion Medica En El Hogar","caguas, Puerto Rico 00726 5742","(787) 743-1121",n/a,"(787) 746-1066",Caguas,"Puerto Rico","00726 5742","United States"
162,"2018-03-08 20:25:44","Hospicio Atencion Medica Inc","caguas, Puerto Rico 00726 5742","(787) 258-1628",n/a,"(787) 746-1066",Caguas,"Puerto Rico","00726 5742","United States"
163,"2018-03-08 20:25:50","Hospicio La Caridad","caguas, Puerto Rico 726","(787) 286-8745",n/a,"(787) 746-5750",Caguas,"Puerto Rico",726,"United States"
164,"2018-03-08 20:25:56","Valley Medical And Hospital Supplies","caguas, Puerto Rico 726",n/a,n/a,n/a,Caguas,"Puerto Rico",726,"United States"
165,"2018-03-08 20:26:04","Ech Mart Cardioservice","carolina, Puerto Rico 00984 4467",n/a,n/a,n/a,Carolina,"Puerto Rico","00984 4467","United States"
166,"2018-03-08 20:26:09","Geminis Home Care Program","corozal, Puerto Rico 783","(787) 859-5755",n/a,"(787) 859-4307",Corozal,"Puerto Rico",783,"United States"
167,"2018-03-08 20:26:16","Programa Servicios De Salud En El Hogar Geminis Inc","corozal, Puerto Rico 783","(787) 859-5755",n/a,"(787) 859-4307",Corozal,"Puerto Rico",783,"United States"
168,"2018-03-08 20:26:21","Hospicio De Esperanza","fajardo, Puerto Rico 738","(809) 860-2990",n/a,"(809) 860-2990",Fajardo,"Puerto Rico",738,"United States"
169,"2018-03-08 20:26:27","Guaynabo Home Care Program","guaynabo, Puerto Rico 00970 3828","(787) 720-9351",n/a,"(787) 789-7070",Guaynabo,"Puerto Rico","00970 3828","United States"
170,"2018-03-08 20:26:38","Novalife Corporation","guaynabo, Puerto Rico 970","(787) 789-2339",n/a,"(787) 272-4036",Guaynabo,"Puerto Rico",970,"United States"
171,"2018-03-08 20:26:44","Healthkeepers Home Care","hato rey, Puerto Rico 00918 3139","(908) 849-4596",n/a,"(908) 849-4596","Hato Rey","Puerto Rico","00918 3139","United States"
172,"2018-03-08 20:26:50","Ryder Memorial Home Care And Hospice Program","humacao, Puerto Rico 00792 0859","(787) 852-2869",n/a,"(787) 852-0899",Humacao,"Puerto Rico","00792 0859","United States"
173,"2018-03-08 20:27:01","Camino De Luz Hospice","manati, Puerto Rico 674","(787) 884-0786",n/a,"(787) 884-0786",Manati,"Puerto Rico",674,"United States"
174,"2018-03-08 20:27:07","Emun Medical Supply Inc","manati, Puerto Rico 674",n/a,n/a,n/a,Manati,"Puerto Rico",674,"United States"
175,"2018-03-08 20:27:12","Hospicio Toque De Amor","manati, Puerto Rico 00674 1102","(787) 884-3326",n/a,"(787) 854-0654",Manati,"Puerto Rico","00674 1102","United States"
176,"2018-03-08 20:27:19","La Espanola Home Care Agency","mayaguez, Puerto Rico 00681 0490","(787) 832-0404",n/a,"(787) 832-2094",Mayaguez,"Puerto Rico","00681 0490","United States"
177,"2018-03-08 20:27:26","Hospice Lamilagrosa Inc","morovis, Puerto Rico 687",n/a,n/a,n/a,Morovis,"Puerto Rico",687,"United States"
178,"2018-03-08 20:27:31","Hospicio Luzamor Inc","moroviz, Puerto Rico 00687 1312","(809) 862-0608",n/a,"(809) 862-0608",Moroviz,"Puerto Rico","00687 1312","United States"
179,"2018-03-08 20:27:46","Hospicio La Montana","naranjito, Puerto Rico 00719 0515","(809) 869-5500",n/a,"(809) 869-4483",Naranjito,"Puerto Rico","00719 0515","United States"
180,"2018-03-08 20:27:49","Comfort Medical Supplies Inc","ponce, Puerto Rico 00732 7032","(787) 844-5959",n/a,"(787) 259-2979",Ponce,"Puerto Rico","00732 7032","United States"
181,"2018-03-08 20:27:58","La Providencia Hospice","ponce, Puerto Rico 733","(787) 843-2364",n/a,"(787) 843-2364",Ponce,"Puerto Rico",733,"United States"
182,"2018-03-08 20:28:07","Fajardo Home Care Inc","puerto real, Puerto Rico 00740 0643","(809) 863-6105",n/a,"(809) 860-5270","Puerto Real","Puerto Rico","00740 0643","United States"
183,"2018-03-08 20:28:17","Hospicio San Francisco De Asis","rincon, Puerto Rico 00677 1246","(787) 868-2920",n/a,"(787) 868-2920",Rincon,"Puerto Rico","00677 1246","United States"
184,"2018-03-08 20:28:28","Carribean Hospice Corp","rio piedras, Puerto Rico 926","(809) 764-6565",n/a,"(809) 764-6565","Rio Piedras","Puerto Rico",926,"United States"
185,"2018-03-08 20:28:35","Hospital San Francisco","rio piedras, Puerto Rico 00929 1711","(809) 767-5100",n/a,"(809) 767-5100","Rio Piedras","Puerto Rico","00929 1711","United States"
186,"2018-03-08 20:28:45","Visiting Nurse Association Gregoria Auffant Inc","rio piedras, Puerto Rico 924","(809) 762-7666",n/a,"(809) 769-0630","Rio Piedras","Puerto Rico",924,"United States"
187,"2018-03-08 20:28:48","Hospicio Del Oeste Inc","san german, Puerto Rico 00683 9732","(787) 892-1820",n/a,"(707) 264-3440","San German","Puerto Rico","00683 9732","United States"
188,"2018-03-08 20:29:00","Community Hospice","san juan, Puerto Rico 910","(809) 723-4177",n/a,"(809) 723-4177","San Juan","Puerto Rico",910,"United States"
189,"2018-03-08 20:29:25","Hospital Sin Paredes Inc","san juan, Puerto Rico 00919 2015","(787) 767-8959",n/a,"(787) 759-6815","San Juan","Puerto Rico","00919 2015","United States"
190,"2018-03-08 20:29:29","Junta Servicios Community","san juan, Puerto Rico 00936 6049","(787) 783-7953",n/a,"(787) 783-7953","San Juan","Puerto Rico","00936 6049","United States"
191,"2018-03-08 20:29:41","Monserrate Hospice Care Inc","san juan, Puerto Rico 00936 6148","(787) 754-0449",n/a,"(787) 751-4204","San Juan","Puerto Rico","00936 6148","United States"
192,"2018-03-08 20:29:50","Nazareno Home Care Inc","san juan, Puerto Rico 00929 0492","(787) 768-3775",n/a,"(787) 276-8035","San Juan","Puerto Rico","00929 0492","United States"
193,"2018-03-08 20:29:57","Corporacion Las Vegas Inc","vega alta, Puerto Rico 692","(787) 883-0873",n/a,"(787) 883-0873","Vega Alta","Puerto Rico",692,"United States"
194,"2018-03-08 20:30:06",Hospice,"vega baja, Puerto Rico 694","(787) 855-0411",n/a,"(787) 855-0285","Vega Baja","Puerto Rico",694,"United States"
195,"2018-03-08 20:30:15","Hospicio Divino Salvador","vega baja, Puerto Rico 694","(787) 855-0411",n/a,"(787) 855-0411","Vega Baja","Puerto Rico",694,"United States"
196,"2018-03-08 20:30:27","Leroyer Hospice","antigo, Wisconsin 54409 2706","(715) 623-2331",n/a,"(715) 623-9440",Antigo,Wisconsin,"54409 2706","United States"
197,"2018-03-08 20:30:43","Affinity Visiting Nurses","appleton, Wisconsin 54913 4803","(920) 996-4800",n/a,"(920) 996-4803",Appleton,Wisconsin,"54913 4803","United States"
198,"2018-03-08 20:30:52","Outagamie County Department Human Services","appleton, Wisconsin 54911 5920","(262) 832-5457",n/a,"(262) 832-4770",Appleton,Wisconsin,"54911 5920","United States"
199,"2018-03-08 20:31:00","Franciscan Skemp Medical Cen","arcadia, Wisconsin 54612","(608) 323-7517",n/a,"(608) 323-7517",Arcadia,Wisconsin,54612,"United States"
200,"2018-03-08 20:31:12","Bay Area Home Health Services","ashland, Wisconsin 54806 3622","(715) 682-9500",n/a,"(715) 682-9580",Ashland,Wisconsin,"54806 3622","United States"
